Tracking 25612 objects as of 20-May-2022
HD Live streaming from Space Station
objects crossing your sky now

FLOCK 4S 5

Track FLOCK 4S 5 now!
10-day predictions
FLOCK 4S 5 is classified as:


NORAD ID: 47515
Int'l Code: 2021-006DF
Perigee: 520.2 km
Apogee: 532.7 km
Inclination: 97.4 °
Period: 95.0 minutes
Semi major axis: 6897 km
RCS: Unknown
Launch date: January 24, 2021
Source: United States (US)
Launch site: AIR FORCE EASTERN TEST RANGE (AFETR)
aabbcc
Your satellite tracking list
Your tracking list is empty




NASA's NSSDC Master Catalog

Two Line Element Set (TLE):
1 47515U 21006DF  22139.39995128  .00010502  00000-0  55634-3 0  9998
2 47515  97.4367 198.5021 0009040  42.5710 317.6222 15.15551595 72855
Source of the keplerian elements: AFSPC